Arlington, DC

3:47 PM EDT on September 26, 2016 (GMT -0400)
Ronald Reagan Washington National

Weather History for KDCA - June, 2013

Change the Weather History Date:

Thursday, June 27, 2013

  Actual Average Record
Temperature  
Mean Temperature 78 °F 78 °F  
Max Temperature 84 °F 87 °F 99 °F (2010)
Min Temperature 72 °F 69 °F 57 °F (1927)
Degree Days  
Heating Degree Days 0 0  
Month to date heating degree days 0 5  
Since 1 June heating degree days 0 5  
Since 1 July heating degree days 3765 4030  
Cooling Degree Days 13 13  
Month to date cooling degree days 306 272  
Year to date cooling degree days 491 406  
Since 1 June cooling degree days 306 272  
Growing Degree Days 28 (Base 50)    
Moisture  
Dew Point 70 °F    
Average Humidity 78    
Maximum Humidity 90    
Minimum Humidity 65    
Precipitation  
Precipitation 0.23 in 0.12 in 2.75 in (2015)
Month to date precipitation 6.83 3.40  
Year to date precipitation 19.41 19.36  
Snow  
Snow 0.00 in 0.00 in - ()
Month to date snowfall 0.0 0.0  
Since 1 July snowfall 3.1 15.4  
Snow Depth 0.00 in    
Sea Level Pressure  
Sea Level Pressure 29.72 in    
Wind  
Wind Speed 8 mph (SSW)    
Max Wind Speed 18 mph    
Max Gust Speed 24 mph    
Visibility 8 miles    
Events Rain    
T = Trace of Precipitation, MM = Missing Value Source: NWS Daily Summary

Daily Weather History Graph

Daily Weather History Graph

Search for Another Location

Airport or City:

Trip Planner

Search our weather history database for the weather conditions in past years. The results will help you decide how hot, cold, wet, or windy it might be!

Date:

Astronomy

Jun. 27, 2013 Rise Set
Actual Time 5:45 AM EDT 8:37 PM EDT
Civil Twilight 5:13 AM EDT 9:09 PM EDT
Nautical Twilight 4:32 AM EDT 9:49 PM EDT
Astronomical Twilight 3:46 AM EDT 10:35 PM EDT
Moon 11:36 PM EDT (6/27) 10:40 AM EDT (6/27)
Length of Visible Light 15h 56m
Length of Day
14h 52m
Waning Gibbous, 76% of the Moon is Illuminated
Jun 27
Waning Gibbous
Jun 30
Last Quarter
Jul 8
New
Jul 15
First Quarter
Jul 22
Full

Hourly Weather History & Observations

Time (EDT) Temp. Heat Index Dew Point Humidity Pressure Visibility Wind Dir Wind Speed Gust Speed Precip Events Conditions
12:52 AM 73.9 °F - 66.9 °F 79% 29.85 in 10.0 mi SSW 5.8 mph - N/A   Mostly Cloudy
1:52 AM 73.9 °F - 66.9 °F 79% 29.83 in 10.0 mi Calm Calm - N/A   Overcast
2:52 AM 73.0 °F - 66.9 °F 81% 29.82 in 10.0 mi SW 6.9 mph - N/A   Overcast
3:52 AM 72.0 °F - 66.9 °F 84% 29.81 in 10.0 mi SSW 4.6 mph - N/A   Scattered Clouds
4:52 AM 73.0 °F - 69.1 °F 87% 29.81 in 10.0 mi South 6.9 mph - N/A   Scattered Clouds
4:54 AM 73.4 °F - 69.8 °F 88% 29.81 in 10.0 mi South 8.1 mph - N/A   Scattered Clouds
5:06 AM 73.4 °F - 69.8 °F 88% 29.81 in 10.0 mi South 6.9 mph - N/A   Scattered Clouds
5:09 AM 73.4 °F - 69.8 °F 88% 29.81 in 10.0 mi South 6.9 mph - N/A   Mostly Cloudy
5:52 AM 72.0 °F - 68.0 °F 87% 29.82 in 7.0 mi SSW 6.9 mph - N/A   Overcast
6:13 AM 71.6 °F - 68.0 °F 88% 29.82 in 9.0 mi South 8.1 mph - N/A   Overcast
6:52 AM 72.0 °F - 68.0 °F 87% 29.82 in 9.0 mi SSW 6.9 mph - N/A   Overcast
7:52 AM 73.4 °F - 69.8 °F 88% 29.80 in 8.0 mi SE 4.6 mph - N/A   Overcast
8:26 AM 73.4 °F - 68.0 °F 83% 29.80 in 9.0 mi South 6.9 mph - N/A   Overcast
8:52 AM 73.0 °F - 69.1 °F 87% 29.80 in 10.0 mi South 9.2 mph - N/A   Overcast
9:04 AM 73.4 °F - 69.8 °F 88% 29.80 in 10.0 mi South 6.9 mph - N/A   Overcast
9:40 AM 75.2 °F - 68.0 °F 78% 29.78 in 10.0 mi South 6.9 mph - N/A   Overcast
9:52 AM 75.9 °F - 69.1 °F 79% 29.78 in 10.0 mi SSW 6.9 mph - N/A   Overcast
10:18 AM 78.8 °F - 69.8 °F 74% 29.77 in 10.0 mi South 9.2 mph - N/A   Mostly Cloudy
10:52 AM 80.1 °F 83.2 °F 70.0 °F 71% 29.75 in 10.0 mi South 8.1 mph - N/A   Mostly Cloudy
11:52 AM 81.0 °F 84.4 °F 70.0 °F 69% 29.74 in 10.0 mi SSW 10.4 mph - N/A   Overcast
12:52 PM 84.0 °F 89.6 °F 72.0 °F 67% 29.72 in 10.0 mi South 13.8 mph - N/A   Mostly Cloudy
12:59 PM 84.2 °F 89.6 °F 71.6 °F 66% 29.71 in 10.0 mi South 16.1 mph - N/A   Mostly Cloudy
1:26 PM 80.6 °F 83.9 °F 69.8 °F 70% 29.71 in 10.0 mi SSW 18.4 mph 24.2 mph N/A   Overcast
1:52 PM 80.1 °F 83.6 °F 71.1 °F 74% 29.70 in 10.0 mi South 13.8 mph - N/A   Overcast
2:05 PM 78.8 °F - 69.8 °F 74% 29.70 in 10.0 mi South 15.0 mph - 0.00 in Rain Light Rain
2:52 PM 75.9 °F - 70.0 °F 82% 29.69 in 7.0 mi SSW 12.7 mph - 0.00 in Rain Light Rain
3:10 PM 77.0 °F - 69.8 °F 78% 29.69 in 8.0 mi South 10.4 mph - 0.00 in Rain Light Rain
3:16 PM 75.2 °F - 71.6 °F 89% 29.69 in 3.0 mi South 12.7 mph - 0.00 in Rain Light Rain
3:21 PM 75.2 °F - 71.6 °F 89% 29.69 in 2.5 mi SSW 11.5 mph - 0.01 in Rain Rain
3:30 PM 75.2 °F - 71.6 °F 89% 29.68 in 2.5 mi South 11.5 mph - 0.04 in Rain Rain
3:33 PM 75.2 °F - 71.6 °F 89% 29.68 in 2.0 mi SSW 11.5 mph - 0.07 in Rain Heavy Rain
3:37 PM 75.2 °F - 71.6 °F 89% 29.68 in 1.5 mi SSW 10.4 mph - 0.08 in Rain Rain
3:44 PM 73.4 °F - 71.6 °F 94% 29.68 in 1.5 mi SW 12.7 mph - 0.12 in Rain Rain
3:46 PM 75.2 °F - 71.6 °F 89% 29.68 in 2.0 mi SW 10.4 mph - 0.13 in Rain Rain
3:52 PM 75.0 °F - 72.0 °F 90% 29.67 in 1.2 mi SSW 8.1 mph - 0.18 in Rain Heavy Rain
3:55 PM 75.2 °F - 71.6 °F 89% 29.67 in 2.0 mi SW 10.4 mph - 0.03 in Rain Rain
4:00 PM 75.2 °F - 71.6 °F 89% 29.66 in 4.0 mi SSW 8.1 mph - 0.04 in Rain Light Rain
4:15 PM 75.2 °F - 71.6 °F 89% 29.66 in 6.0 mi SW 9.2 mph - 0.04 in Rain Light Rain
4:31 PM 77.0 °F - 73.4 °F 89% 29.65 in 10.0 mi SW 9.2 mph - 0.05 in   Mostly Cloudy
4:52 PM 77.0 °F - 72.0 °F 84% 29.65 in 10.0 mi WSW 8.1 mph - 0.05 in   Mostly Cloudy
4:59 PM 78.8 °F - 71.6 °F 78% 29.64 in 10.0 mi SW 10.4 mph - N/A   Mostly Cloudy
5:52 PM 79.0 °F - 72.0 °F 79% 29.64 in 10.0 mi SW 11.5 mph - N/A   Mostly Cloudy
6:52 PM 81.0 °F 84.9 °F 71.1 °F 72% 29.65 in 10.0 mi SSW 6.9 mph - N/A   Scattered Clouds
7:52 PM 80.1 °F 83.8 °F 72.0 °F 76% 29.65 in 10.0 mi South 8.1 mph - N/A   Mostly Cloudy
8:15 PM 80.6 °F 84.6 °F 71.6 °F 74% 29.65 in 10.0 mi South 6.9 mph - N/A   Mostly Cloudy
8:34 PM 78.8 °F - 69.8 °F 74% 29.65 in 10.0 mi SSW 12.7 mph - N/A   Mostly Cloudy
8:46 PM 78.8 °F - 69.8 °F 74% 29.65 in 10.0 mi SW 12.7 mph 20.7 mph N/A   Overcast
8:52 PM 77.0 °F - 70.0 °F 79% 29.66 in 10.0 mi SSW 16.1 mph 24.2 mph N/A   Overcast
9:00 PM 77.0 °F - 69.8 °F 78% 29.66 in 10.0 mi SSW 16.1 mph - 0.00 in Rain Light Rain
9:11 PM 75.2 °F - 71.6 °F 89% 29.66 in 8.0 mi SSW 11.5 mph - 0.00 in Rain Light Rain
9:52 PM 75.9 °F - 72.0 °F 87% 29.67 in 10.0 mi West 4.6 mph - 0.00 in   Overcast
10:52 PM 77.0 °F - 71.1 °F 82% 29.66 in 10.0 mi Calm Calm - N/A   Mostly Cloudy
11:52 PM 75.0 °F - 70.0 °F 84% 29.65 in 10.0 mi SSW 4.6 mph - N/A   Scattered Clouds